Regional Weather Roundup
Issued by NWS Newport/Morehead, NC

Current Version | Previous Version | Graphics & Text | Print | Product List | Glossary Off
Versions: 1 2 3 4 5 6 7 8 9 10 11 12 13 14 15 16 17 18 19 20 21 22 23 24 25 26 27 28 29 30 31 32 33 34 35 36 37 38 39 40 41 42 43 44 45 46 47 48 49 50

000
ASUS42 KMHX 241425
RWRMHX
WEATHER ROUNDUP FOR EASTERN NORTH CAROLINA
NATIONAL WEATHER SERVICE NEWPORT/MOREHEAD CITY NC
1000 AM EDT WED MAY 24 2017

NOTE: "FAIR" INDICATES FEW OR NO CLOUDS BELOW 12,000 FEET
WITH NO SIGNIFICANT WEATHER AND/OR OBSTRUCTIONS TO VISIBILITY

NCZ015>017-031-032-045>047-102-103-241500-
NORTH COAST

CITY           SKY/WX    TMP DP  RH WIND       PRES   REMARKS
EDENTON        CLOUDY    67  63  89 CALM      29.72R
ELIZABETH CITY CLOUDY    63  63 100 NE8       29.72R FOG
KITTY HAWK     CLOUDY    63  63 100 CALM      29.70S
MANTEO         CLOUDY    66  65  94 N6        29.71R

$$

NCZ045>047-081-094-103-104-241500-
CENTRAL COAST

CITY           SKY/WX    TMP DP  RH WIND       PRES   REMARKS
FRISCO         CLOUDY    76  67  73 W6        29.71R

$$

NCZ095-097-098-100-101-241500-
SOUTHERN COAST

CITY           SKY/WX    TMP DP  RH WIND       PRES   REMARKS
BEAUFORT       CLOUDY    72  68  87 SW5       29.72S
CEDAR ISLAND   NOT AVBL
JACKSONVILLE   NOT AVBL
PINEY ISLAND   CLOUDY   N/A N/A N/A W3        29.73
WILMINGTON     CLOUDY    73  69  87 W8        29.70S


$$

NCZ011>013-027>030-043-044-078>080-089-090>093-098-241500-
COASTAL PLAIN

CITY           SKY/WX    TMP DP  RH WIND       PRES   REMARKS
AHOSKIE        RAIN      63  62  96 E5        29.72R
CLINTON        PTSUNNY   73  69  85 S5        29.69F
ELIZABETHTOWN  PTSUNNY   74  68  80 S6        29.70S
GOLDSBORO      CLOUDY    72  70  94 W3        29.69R
GREENVILLE     CLOUDY    70  68  94 N7        29.74R
HAVELOCK       CLOUDY    73  67  81 SW5       29.73R
KENANSVILLE    CLOUDY    73  68  83 SW6       29.70S
KINSTON        PTSUNNY   73  66  78 SW6       29.71R
NEW BERN       CLOUDY    73  67  81 CALM      29.73R
RICHLANDS      CLOUDY    71  67  87 S5        29.71S
ROCKY MOUNT    CLOUDY    66  65  96 NE7       29.70R
WASHINGTON     PTSUNNY   70  66  86 CALM      29.71R
WHITEVILLE     CLOUDY    74  68  82 SW6       29.69S

$$

AMZ130-135-150-152-154-156-158-170-250-252-270-ANZ085-086-088-633-658-670-241500-
MARINE OBSERVATIONS

STATION/POSITION TIME  TEMP    WIND        PRES    WAVE   SWELL
                       AIR SEA DIR/SP/G            HT/PER HT/PER
                 (UTC) (F)     (DEG/KT/KT) (MB)    (FT/S) (FT/S)
CHESAPEAKE LIGHT NOT AVBL
64 E VA BEACH    1350   60 64  340/  8/ 10 1005.8    5/ 8   5/ 8
DUCK             1400   61 64   10/  5/  7 1005.9
2 E DUCK         1400      65                N/A     3/ 5   2/11
OREGON INLET     1400   66 71   10/  5/  7 1005.7
13E OREGON INLT  1348      66                N/A     5/ 7   5/ 7
HATTERAS CG      1400   73 73  260/  7/  9 1006.1
DIAMOND BUOY     1350   73 74  240/ 10/ 10 1006.4    5/ 7   5/ 7
CAPE LOOKOUT     1400   72     260/  3/  4 1006.4
BEAUFORT LAB     1400   72 72  210/  4/  6 1005.8
30 SE NEW RVR IN 1408   73 76  280/  6/ 10 1006.4
30 SE NEW RVR IN 1343      76                N/A     8/ 8   2/11
27 SE WRIGHTSVLE 1408   74 75  260/ 10/ 16 1005.0
5 SE WRIGHTSVLE  1408   73 74  250/  4/  6 1005.5
225 S CAPE HAT   1250   77 76  200/ 21/ 27 1010.6    9/ 7   2/11
41 SE CHARLESTON 1410   75 76  220/ 16/ 19 1006.0

$$




USA.gov is the U.S. government's official web portal to all federal, state and local government web resources and services.